TimeEDT,TemperatureF,Dew PointF,Humidity,Sea Level PressureIn,VisibilityMPH,Wind Direction,Wind SpeedMPH,Gust SpeedMPH,PrecipitationIn,Events,Conditions,WindDirDegrees,DateUTC
12:58 AM,63.0,63.0,100,29.85,7.0,NNW,18.4,23.0,N/A,,Overcast,340,2013-10-10 04:58:00
1:10 AM,62.6,62.6,100,29.85,6.0,North,15.0,-,N/A,,Overcast,350,2013-10-10 05:10:00
1:58 AM,63.0,63.0,100,29.84,5.0,NNW,18.4,-,N/A,,Overcast,340,2013-10-10 05:58:00
2:58 AM,63.0,63.0,100,29.83,6.0,NNW,19.6,-,N/A,,Overcast,340,2013-10-10 06:58:00
3:58 AM,62.1,62.1,100,29.83,5.0,NNW,20.7,-,N/A,,Overcast,340,2013-10-10 07:58:00
4:56 AM,62.6,62.6,100,29.83,7.0,NNW,21.9,25.3,N/A,,Overcast,330,2013-10-10 08:56:00
4:58 AM,62.1,62.1,100,29.83,7.0,NNW,20.7,25.3,N/A,,Overcast,330,2013-10-10 08:58:00
5:58 AM,62.1,62.1,100,29.83,10.0,NNW,17.3,-,N/A,,Overcast,330,2013-10-10 09:58:00
6:56 AM,60.8,60.8,100,29.84,10.0,NW,16.1,-,N/A,,Overcast,310,2013-10-10 10:56:00
6:58 AM,61.0,61.0,100,29.84,10.0,NW,17.3,-,N/A,,Overcast,320,2013-10-10 10:58:00
7:58 AM,61.0,61.0,100,29.86,3.0,NW,16.1,-,N/A,,Overcast,320,2013-10-10 11:58:00
8:58 AM,61.0,61.0,100,29.88,3.0,NW,15.0,-,N/A,,Overcast,310,2013-10-10 12:58:00
9:05 AM,60.8,60.8,100,29.88,1.8,NW,11.5,-,N/A,,Overcast,310,2013-10-10 13:05:00
9:19 AM,60.8,60.8,100,29.88,2.5,NW,13.8,-,N/A,,Overcast,310,2013-10-10 13:19:00
9:29 AM,62.6,62.6,100,29.88,4.0,NW,13.8,-,N/A,,Overcast,310,2013-10-10 13:29:00
9:58 AM,61.0,61.0,100,29.88,5.0,NW,17.3,-,N/A,,Overcast,320,2013-10-10 13:58:00
10:46 AM,62.6,62.6,100,29.88,9.0,NW,16.1,24.2,N/A,,Overcast,320,2013-10-10 14:46:00
10:58 AM,62.1,62.1,100,29.88,9.0,NW,18.4,-,N/A,,Overcast,320,2013-10-10 14:58:00
11:58 AM,63.0,63.0,100,29.88,10.0,NW,15.0,-,N/A,,Overcast,310,2013-10-10 15:58:00
12:58 PM,63.0,63.0,100,29.88,10.0,NW,17.3,-,N/A,,Overcast,310,2013-10-10 16:58:00
1:58 PM,64.0,63.0,96,29.86,10.0,NW,13.8,-,N/A,,Overcast,310,2013-10-10 17:58:00
2:05 PM,64.4,62.6,94,29.86,10.0,NW,15.0,20.7,N/A,,Overcast,310,2013-10-10 18:05:00
2:58 PM,63.0,62.1,97,29.86,10.0,WNW,15.0,-,N/A,,Overcast,300,2013-10-10 18:58:00
3:58 PM,62.1,61.0,96,29.86,9.0,WNW,13.8,-,N/A,,Overcast,290,2013-10-10 19:58:00
4:58 PM,62.1,61.0,96,29.87,10.0,WNW,18.4,-,N/A,,Overcast,300,2013-10-10 20:58:00
5:58 PM,62.1,60.1,93,29.87,10.0,NW,15.0,-,N/A,,Overcast,310,2013-10-10 21:58:00
6:58 PM,61.0,60.1,97,29.87,10.0,WNW,17.3,23.0,N/A,,Overcast,300,2013-10-10 22:58:00
7:55 PM,60.8,60.8,100,29.88,10.0,NW,15.0,-,N/A,,Overcast,310,2013-10-10 23:55:00
7:58 PM,60.1,60.1,100,29.88,10.0,WNW,13.8,-,N/A,,Overcast,300,2013-10-10 23:58:00
8:58 PM,60.1,60.1,100,29.88,10.0,WNW,11.5,-,N/A,,Overcast,300,2013-10-11 00:58:00
9:58 PM,60.1,60.1,100,29.89,9.0,West,10.4,-,N/A,,Overcast,280,2013-10-11 01:58:00
10:58 PM,59.0,59.0,100,29.88,6.0,WNW,10.4,-,N/A,,Overcast,290,2013-10-11 02:58:00
11:58 PM,59.0,59.0,100,29.87,10.0,WNW,12.7,-,N/A,,Overcast,290,2013-10-11 03:58:00